Location: Newark
(34.1333°N, 7.9667°W)
Time: 03:51:06
(UTC+00:00)

UKube-1 - Pass Details

Date: 18 June 2023
Orbit: 598 x 602 km, 98.3° (Epoch: 28 September)

Event Time Altitude Azimuth Distance (km) Brightness Sun altitude
Rises 00:05:45 0° 10° (N) 2,850 ? -32.1°
Reaches altitude 10° 00:07:56 10° 8° (N) 1,942 ? -32.2°
Enters shadow 00:09:52 27° 4° (N) 1,176 ? -32.2°
